Regional Weather Roundup
Issued by NWS

Home | Current Version | Previous Version | Graphics & Text | Print | Product List | Glossary On
Versions: 1 2 3 4 5 6 7 8 9 10 11 12 13 14 15 16 17 18 19 20 21 22 23 24 25 26 27
000
ASUS45 KSLC 261810
RWRUT

UTAH REGIONAL WEATHER ROUNDUP
NATIONAL WEATHER SERVICE SALT LAKE CITY UT
1200 PM MDT MON SEP 26 2016

UTZ001>011-023>025-261900-

NORTHERN UTAH

CITY           SKY/WX    TMP DP  RH WIND       PRES   REMARKS
BRIGHAM CITY     N/A     63  45  51 CALM      30.42F
DUGWAY         SUNNY     62  49  62 W5        30.43
HILL AFB       SUNNY     63  42  46 VRB5      30.42F
LOGAN          SUNNY     60  43  53 N5        30.43F
OGDEN          SUNNY     63  45  51 VRB3      30.41F
PROVO AIRPORT  SUNNY     58  46  64 SW7       30.43F
SALT LAKE CITY SUNNY     66  44  45 CALM      30.40F
VERNAL         SUNNY     57  44  62 SE6       30.47F
WENDOVER       SUNNY     63  43  48 SE5       30.43F
HEBER CITY     SUNNY     57  36  44 CALM      30.45F
WEST JORDAN    SUNNY     65  43  45 NE3       30.42F

$$

UTZ012>022-026-027-261900-

SOUTHERN/CENTRAL UTAH

CITY           SKY/WX    TMP DP  RH WIND       PRES   REMARKS
BLANDING       SUNNY     64  34  32 SE3       30.52F
BRYCE CANYON   SUNNY     61  29  29 CALM      30.52F
CEDAR CITY     SUNNY     62  34  35 VRB3      30.42F
DELTA          SUNNY     61  41  48 NW7       30.42F
MILFORD        SUNNY     66  39  37 NE9       30.41F
MOAB/CYNLANDS  SUNNY     70  36  28 VRB6      30.39F
PRICE          SUNNY     63  37  38 VRB5      30.46F
ST GEORGE      CLEAR     73  36  25 CALM      30.30F

$$

REGIONAL REPORTS     COLORADO/ARIZONA

CITY           SKY/WX    TMP DP  RH WIND       PRES   REMARKS
CRAIG, CO      SUNNY     61  35  37 N3        30.48F
GRAND JUNCTION SUNNY     64  37  36 VRB3      30.42F
RIFLE          SUNNY     60  39  45 VRB3      30.45F
MONTROSE       SUNNY     63  38  39 N5        30.48F
CORTEZ         SUNNY     67  38  34 W7        30.44F
PAGE, AZ       SUNNY     70  33  25 VRB5      30.38
GRAND CANYON   SUNNY     66  36  32 NE13      30.46F
KINGMAN        SUNNY     83  33  16 CALM      30.23F
FLAGSTAFF      SUNNY     62  36  37 E8        30.45F

$$

REGIONAL REPORTS    NEVADA/IDAHO/WYOMING

CITY           SKY/WX    TMP DP  RH WIND       PRES   REMARKS
LAS VEGAS, NV  SUNNY     84  29  13 NE12G18   30.21F
ELY            SUNNY     62  33  33 VRB3      30.47F
ELKO           SUNNY     66  38  35 VRB5      30.39F
POCATELLO, ID  SUNNY     61  40  45 E6        30.44F
BURLEY         SUNNY     66  45  46 NE8       30.39F
EVANSTON, WY   SUNNY     60  36  40 NW6       30.51F
ROCK SPRINGS   SUNNY     58  38  47 S5        30.49F

$$




USA.gov is the U.S. government's official web portal to all federal, state and local government web resources and services.